,,PressureMeas_1m,,PRMeasQMR101_1,,RHStat155_1m_1,,SRMeasQMS101R_1m,,TAStat155_1m_1,,GenWind_1,,GenWind_1,
2019-10-24, 00:00:07,VALID,917.587,VALID,0.0,VALID,98.714,VALID,-0.008,VALID,20.484,VALID,3.0,VALID,0.0,
2019-10-24, 00:01:07,VALID,917.605,VALID,0.0,VALID,98.747,VALID,0.002,VALID,20.497,VALID,18.0,VALID,0.0,
2019-10-24, 00:02:07,VALID,917.575,VALID,0.0,VALID,98.737,VALID,-0.006,VALID,20.51,VALID,359.0,VALID,0.0,
2019-10-24, 00:03:07,VALID,917.582,VALID,0.0,VALID,98.817,VALID,-0.008,VALID,20.553,VALID,345.0,VALID,0.0,
2019-10-24, 00:04:07,VALID,917.565,VALID,0.0,VALID,98.671,VALID,-0.014,VALID,20.526,VALID,334.0,VALID,0.0,
2019-10-24, 00:05:07,VALID,917.525,VALID,0.0,VALID,98.607,VALID,-0.017,VALID,20.531,VALID,17.0,VALID,0.0,
2019-10-24, 00:06:07,VALID,917.508,VALID,0.0,VALID,98.489,VALID,0.0,VALID,20.525,VALID,317.0,VALID,0.0,
2019-10-24, 00:07:07,VALID,917.478,VALID,0.0,VALID,98.425,VALID,0.0,VALID,20.535,VALID,340.0,VALID,0.0,
2019-10-24, 00:08:07,VALID,917.466,VALID,0.0,VALID,98.45,VALID,-0.01,VALID,20.581,VALID,27.0,VALID,0.0,
2019-10-24, 00:09:07,VALID,917.463,VALID,0.0,VALID,98.379,VALID,0.0,VALID,20.595,VALID,27.0,VALID,0.0,
2019-10-24, 00:10:07,VALID,917.441,VALID,0.0,VALID,98.267,VALID,-0.001,VALID,20.589,VALID,19.0,VALID,0.0,
2019-10-24, 00:11:07,VALID,917.426,VALID,0.0,VALID,98.105,VALID,-0.015,VALID,20.567,VALID,29.0,VALID,0.0,
2019-10-24, 00:12:07,VALID,917.369,VALID,0.0,VALID,98.097,VALID,-0.008,VALID,20.568,VALID,11.0,VALID,0.0,
2019-10-24, 00:13:07,VALID,917.339,VALID,0.0,VALID,98.138,VALID,0.003,VALID,20.558,VALID,14.0,VALID,0.0,
2019-10-24, 00:14:07,VALID,917.328,VALID,0.0,VALID,98.244,VALID,-0.001,VALID,20.543,VALID,9.0,VALID,0.0,
2019-10-24, 00:15:07,VALID,917.304,VALID,0.0,VALID,98.346,VALID,0.007,VALID,20.54,VALID,10.0,VALID,0.0,
2019-10-24, 00:16:07,VALID,917.291,VALID,0.0,VALID,98.404,VALID,-0.001,VALID,20.53,VALID,10.0,VALID,0.0,
2019-10-24, 00:17:07,VALID,917.287,VALID,0.0,VALID,98.496,VALID,-0.013,VALID,20.538,VALID,358.0,VALID,0.0,
2019-10-24, 00:18:07,VALID,917.246,VALID,0.0,VALID,98.474,VALID,-0.005,VALID,20.52,VALID,358.0,VALID,0.0,
2019-10-24, 00:19:07,VALID,917.243,VALID,0.0,VALID,98.465,VALID,-0.019,VALID,20.52,VALID,355.0,VALID,0.0,
2019-10-24, 00:20:07,VALID,917.194,VALID,0.0,VALID,98.358,VALID,-0.012,VALID,20.483,VALID,2.0,VALID,0.0,
2019-10-24, 00:21:07,VALID,917.186,VALID,0.0,VALID,98.421,VALID,0.002,VALID,20.478,VALID,7.0,VALID,0.0,
2019-10-24, 00:22:07,VALID,917.181,VALID,0.0,VALID,98.543,VALID,0.016,VALID,20.482,VALID,353.0,VALID,0.0,
2019-10-24, 00:23:07,VALID,917.179,VALID,0.0,VALID,98.589,VALID,0.009,VALID,20.478,VALID,6.0,VALID,0.0,
2019-10-24, 00:24:07,VALID,917.153,VALID,0.0,VALID,98.658,VALID,0.017,VALID,20.465,VALID,5.0,VALID,0.0,
2019-10-24, 00:25:07,VALID,917.141,VALID,0.0,VALID,98.645,VALID,0.01,VALID,20.438,VALID,7.0,VALID,0.0,
2019-10-24, 00:26:07,VALID,917.124,VALID,0.0,VALID,98.746,VALID,0.006,VALID,20.44,VALID,5.0,VALID,0.0,
2019-10-24, 00:27:07,VALID,917.121,VALID,0.0,VALID,98.824,VALID,0.0,VALID,20.453,VALID,360.0,VALID,0.0,
2019-10-24, 00:28:07,VALID,917.12,VALID,0.0,VALID,98.763,VALID,0.002,VALID,20.435,VALID,349.0,VALID,0.0,
2019-10-24, 00:29:07,VALID,917.094,VALID,0.0,VALID,98.773,VALID,0.0,VALID,20.442,VALID,341.0,VALID,0.0,
2019-10-24, 00:30:07,VALID,917.054,VALID,0.0,VALID,98.735,VALID,0.007,VALID,20.445,VALID,360.0,VALID,0.0,
2019-10-24, 00:31:07,VALID,917.052,VALID,0.0,VALID,98.771,VALID,-0.004,VALID,20.493,VALID,341.0,VALID,0.0,
2019-10-24, 00:32:07,VALID,917.04,VALID,0.0,VALID,98.665,VALID,0.008,VALID,20.471,VALID,354.0,VALID,0.0,
2019-10-24, 00:33:07,VALID,917.045,VALID,0.0,VALID,98.618,VALID,0.001,VALID,20.468,VALID,17.0,VALID,0.0,
2019-10-24, 00:34:07,VALID,917.027,VALID,0.0,VALID,98.516,VALID,-0.006,VALID,20.444,VALID,360.0,VALID,0.0,
2019-10-24, 00:35:07,VALID,917.019,VALID,0.0,VALID,98.515,VALID,0.004,VALID,20.455,VALID,2.0,VALID,0.0,
2019-10-24, 00:36:07,VALID,917.025,VALID,0.0,VALID,98.459,VALID,0.01,VALID,20.447,VALID,8.0,VALID,0.0,
2019-10-24, 00:37:07,VALID,916.992,VALID,0.0,VALID,98.515,VALID,0.036,VALID,20.477,VALID,1.0,VALID,0.0,
2019-10-24, 00:38:07,VALID,916.993,VALID,0.0,VALID,98.492,VALID,0.035,VALID,20.506,VALID,334.0,VALID,0.0,
2019-10-24, 00:39:07,VALID,916.977,VALID,0.0,VALID,98.284,VALID,0.024,VALID,20.474,VALID,338.0,VALID,0.0,
2019-10-24, 00:40:07,VALID,916.947,VALID,0.0,VALID,98.085,VALID,0.025,VALID,20.454,VALID,6.0,VALID,0.0,
2019-10-24, 00:41:07,VALID,916.925,VALID,0.0,VALID,98.065,VALID,0.031,VALID,20.445,VALID,15.0,VALID,0.0,
2019-10-24, 00:42:07,VALID,916.903,VALID,0.0,VALID,98.128,VALID,0.028,VALID,20.465,VALID,23.0,VALID,0.0,
2019-10-24, 00:43:07,VALID,916.892,VALID,0.0,VALID,98.009,VALID,0.021,VALID,20.442,VALID,13.0,VALID,0.0,
2019-10-24, 00:44:07,VALID,916.886,VALID,0.0,VALID,98.07,VALID,0.034,VALID,20.443,VALID,10.0,VALID,0.0,
2019-10-24, 00:45:07,VALID,916.876,VALID,0.0,VALID,98.156,VALID,0.025,VALID,20.436,VALID,340.0,VALID,0.0,
2019-10-24, 00:46:07,VALID,916.86,VALID,0.0,VALID,98.011,VALID,0.024,VALID,20.409,VALID,18.0,VALID,0.0,
2019-10-24, 00:47:07,VALID,916.843,VALID,0.0,VALID,98.092,VALID,0.024,VALID,20.441,VALID,12.0,VALID,0.0,
2019-10-24, 00:48:07,VALID,916.838,VALID,0.0,VALID,98.014,VALID,0.037,VALID,20.44,VALID,19.0,VALID,0.0,
2019-10-24, 00:49:07,VALID,916.852,VALID,0.0,VALID,98.025,VALID,0.024,VALID,20.441,VALID,7.0,VALID,0.0,
2019-10-24, 00:50:07,VALID,916.848,VALID,0.0,VALID,98.149,VALID,0.03,VALID,20.441,VALID,8.0,VALID,0.0,
2019-10-24, 00:51:07,VALID,916.837,VALID,0.0,VALID,98.279,VALID,0.001,VALID,20.46,VALID,11.0,VALID,0.0,
2019-10-24, 00:52:07,VALID,916.827,VALID,0.0,VALID,98.411,VALID,-0.025,VALID,20.485,VALID,2.0,VALID,0.0,
2019-10-24, 00:53:07,VALID,916.826,VALID,0.0,VALID,98.298,VALID,-0.035,VALID,20.461,VALID,346.0,VALID,0.0,
2019-10-24, 00:54:07,VALID,916.822,VALID,0.0,VALID,98.187,VALID,-0.012,VALID,20.436,VALID,8.0,VALID,0.0,
2019-10-24, 00:55:07,VALID,916.821,VALID,0.0,VALID,98.234,VALID,-0.017,VALID,20.428,VALID,6.0,VALID,0.0,
2019-10-24, 00:56:07,VALID,916.82,VALID,0.0,VALID,98.221,VALID,-0.02,VALID,20.395,VALID,17.0,VALID,0.0,
2019-10-24, 00:57:07,VALID,916.804,VALID,0.0,VALID,98.316,VALID,-0.019,VALID,20.401,VALID,355.0,VALID,0.0,
2019-10-24, 00:58:07,VALID,916.777,VALID,0.0,VALID,98.377,VALID,-0.038,VALID,20.382,VALID,8.0,VALID,0.0,
2019-10-24, 00:59:07,VALID,916.783,VALID,0.0,VALID,98.422,VALID,-0.032,VALID,20.384,VALID,8.0,VALID,0.0,
2019-10-24, 01:00:07,VALID,916.777,VALID,0.0,VALID,98.361,VALID,-0.026,VALID,20.374,VALID,8.0,VALID,0.0,
2019-10-24, 01:01:07,VALID,916.783,VALID,0.0,VALID,98.325,VALID,-0.017,VALID,20.344,VALID,6.0,VALID,0.0,
2019-10-24, 01:02:07,VALID,916.772,VALID,0.0,VALID,98.42,VALID,-0.032,VALID,20.374,VALID,340.0,VALID,0.0,
2019-10-24, 01:03:07,VALID,916.76,VALID,0.0,VALID,98.471,VALID,-0.018,VALID,20.404,VALID,4.0,VALID,0.0,
2019-10-24, 01:04:07,VALID,916.797,VALID,0.0,VALID,98.431,VALID,-0.018,VALID,20.402,VALID,12.0,VALID,0.0,
2019-10-24, 01:05:07,VALID,916.796,VALID,0.0,VALID,98.449,VALID,-0.026,VALID,20.409,VALID,4.0,VALID,0.0,
2019-10-24, 01:06:07,VALID,916.793,VALID,0.0,VALID,98.404,VALID,-0.01,VALID,20.385,VALID,6.0,VALID,0.0,
2019-10-24, 01:07:07,VALID,916.805,VALID,0.0,VALID,98.512,VALID,0.0,VALID,20.402,VALID,9.0,VALID,0.0,
2019-10-24, 01:08:07,VALID,916.803,VALID,0.0,VALID,98.543,VALID,0.003,VALID,20.388,VALID,325.0,VALID,0.0,
2019-10-24, 01:09:07,VALID,916.782,VALID,0.0,VALID,98.421,VALID,0.011,VALID,20.351,VALID,337.0,VALID,0.0,
2019-10-24, 01:10:07,VALID,916.755,VALID,0.0,VALID,98.445,VALID,0.024,VALID,20.331,VALID,356.0,VALID,0.0,
2019-10-24, 01:11:07,VALID,916.741,VALID,0.0,VALID,98.504,VALID,0.01,VALID,20.303,VALID,348.0,VALID,0.0,
2019-10-24, 01:12:07,VALID,916.738,VALID,0.0,VALID,98.583,VALID,0.015,VALID,20.296,VALID,346.0,VALID,0.0,
2019-10-24, 01:13:07,VALID,916.72,VALID,0.0,VALID,98.644,VALID,0.016,VALID,20.298,VALID,346.0,VALID,0.0,
2019-10-24, 01:14:07,VALID,916.705,VALID,0.0,VALID,98.703,VALID,0.019,VALID,20.291,VALID,349.0,VALID,0.0,
2019-10-24, 01:15:07,VALID,916.711,VALID,0.0,VALID,98.729,VALID,0.012,VALID,20.299,VALID,349.0,VALID,0.0,
2019-10-24, 01:16:07,VALID,916.698,VALID,0.0,VALID,98.769,VALID,0.014,VALID,20.32,VALID,40.0,VALID,0.0,
2019-10-24, 01:17:07,VALID,916.683,VALID,0.0,VALID,98.789,VALID,0.003,VALID,20.344,VALID,360.0,VALID,0.0,
2019-10-24, 01:18:07,VALID,916.679,VALID,0.0,VALID,98.719,VALID,0.01,VALID,20.311,VALID,335.0,VALID,0.0,
2019-10-24, 01:19:07,VALID,916.658,VALID,0.0,VALID,98.671,VALID,0.018,VALID,20.304,VALID,308.0,VALID,0.0,
2019-10-24, 01:20:07,VALID,916.644,VALID,0.0,VALID,98.709,VALID,-0.0,VALID,20.316,VALID,352.0,VALID,0.0,
2019-10-24, 01:21:07,VALID,916.647,VALID,0.0,VALID,98.772,VALID,0.008,VALID,20.334,VALID,355.0,VALID,0.0,
2019-10-24, 01:22:07,VALID,916.624,VALID,0.0,VALID,98.781,VALID,0.018,VALID,20.331,VALID,356.0,VALID,0.0,
2019-10-24, 01:23:07,VALID,916.62,VALID,0.0,VALID,98.739,VALID,0.006,VALID,20.306,VALID,359.0,VALID,0.0,
2019-10-24, 01:24:07,VALID,916.604,VALID,0.0,VALID,98.632,VALID,0.023,VALID,20.283,VALID,336.0,VALID,0.0,
2019-10-24, 01:25:07,VALID,916.598,VALID,0.0,VALID,98.62,VALID,0.021,VALID,20.283,VALID,358.0,VALID,0.0,
2019-10-24, 01:26:07,VALID,916.626,VALID,0.0,VALID,98.575,VALID,0.017,VALID,20.264,VALID,354.0,VALID,0.0,
2019-10-24, 01:27:07,VALID,916.611,VALID,0.0,VALID,98.668,VALID,0.012,VALID,20.296,VALID,357.0,VALID,0.0,
2019-10-24, 01:28:07,VALID,916.61,VALID,0.0,VALID,98.604,VALID,0.013,VALID,20.285,VALID,9.0,VALID,0.0,
2019-10-24, 01:29:07,VALID,916.616,VALID,0.0,VALID,98.655,VALID,0.016,VALID,20.295,VALID,359.0,VALID,0.0,
2019-10-24, 01:30:07,VALID,916.619,VALID,0.0,VALID,98.635,VALID,0.014,VALID,20.279,VALID,358.0,VALID,0.0,
2019-10-24, 01:31:07,VALID,916.623,VALID,0.0,VALID,98.712,VALID,0.013,VALID,20.3,VALID,2.0,VALID,0.0,
2019-10-24, 01:32:07,VALID,916.624,VALID,0.0,VALID,98.761,VALID,0.011,VALID,20.316,VALID,339.0,VALID,0.0,
2019-10-24, 01:33:07,VALID,916.631,VALID,0.0,VALID,98.666,VALID,0.024,VALID,20.312,VALID,337.0,VALID,0.0,
2019-10-24, 01:34:07,VALID,916.607,VALID,0.0,VALID,98.713,VALID,0.012,VALID,20.325,VALID,2.0,VALID,0.0,
2019-10-24, 01:35:07,VALID,916.589,VALID,0.0,VALID,98.631,VALID,0.031,VALID,20.294,VALID,351.0,VALID,0.0,
2019-10-24, 01:36:07,VALID,916.575,VALID,0.0,VALID,98.647,VALID,0.007,VALID,20.277,VALID,354.0,VALID,0.0,
2019-10-24, 01:37:07,VALID,916.572,VALID,0.0,VALID,98.732,VALID,0.01,VALID,20.266,VALID,356.0,VALID,0.0,
2019-10-24, 01:38:07,VALID,916.577,VALID,0.0,VALID,98.787,VALID,-0.007,VALID,20.247,VALID,8.0,VALID,0.0,
2019-10-24, 01:39:06,VALID,916.57,VALID,0.0,VALID,98.905,VALID,0.014,VALID,20.235,VALID,341.0,VALID,0.0,
2019-10-24, 01:40:06,VALID,916.579,VALID,0.0,VALID,99.002,VALID,0.012,VALID,20.236,VALID,360.0,VALID,0.0,
2019-10-24, 01:41:06,VALID,916.586,VALID,0.0,VALID,99.085,VALID,0.017,VALID,20.255,VALID,2.0,VALID,0.0,
2019-10-24, 01:42:06,VALID,916.568,VALID,0.0,VALID,99.084,VALID,0.001,VALID,20.255,VALID,356.0,VALID,0.0,
2019-10-24, 01:43:06,VALID,916.556,VALID,0.0,VALID,99.056,VALID,0.014,VALID,20.245,VALID,336.0,VALID,0.0,
2019-10-24, 01:44:06,VALID,916.529,VALID,0.0,VALID,99.001,VALID,0.014,VALID,20.229,VALID,301.0,VALID,0.0,
2019-10-24, 01:45:06,VALID,916.515,VALID,0.0,VALID,98.96,VALID,0.015,VALID,20.207,VALID,9.0,VALID,0.0,
2019-10-24, 01:46:06,VALID,916.508,VALID,0.0,VALID,99.072,VALID,0.016,VALID,20.236,VALID,358.0,VALID,0.0,
2019-10-24, 01:47:06,VALID,916.505,VALID,0.0,VALID,99.071,VALID,0.004,VALID,20.229,VALID,353.0,VALID,0.0,
2019-10-24, 01:48:06,VALID,916.491,VALID,0.0,VALID,99.042,VALID,0.017,VALID,20.218,VALID,358.0,VALID,0.0,
2019-10-24, 01:49:06,VALID,916.476,VALID,0.0,VALID,99.079,VALID,0.011,VALID,20.204,VALID,2.0,VALID,0.0,
2019-10-24, 01:50:06,VALID,916.461,VALID,0.0,VALID,99.033,VALID,0.005,VALID,20.191,VALID,6.0,VALID,0.0,
2019-10-24, 01:51:06,VALID,916.437,VALID,0.0,VALID,99.177,VALID,0.01,VALID,20.231,VALID,10.0,VALID,0.0,
2019-10-24, 01:52:06,VALID,916.421,VALID,0.0,VALID,99.231,VALID,0.004,VALID,20.247,VALID,17.0,VALID,0.0,
2019-10-24, 01:53:06,VALID,916.409,VALID,0.0,VALID,99.293,VALID,-0.003,VALID,20.27,VALID,22.0,VALID,0.0,
2019-10-24, 01:54:06,VALID,916.393,VALID,0.0,VALID,99.242,VALID,-0.003,VALID,20.239,VALID,19.0,VALID,0.0,
2019-10-24, 01:55:06,VALID,916.399,VALID,0.0,VALID,99.185,VALID,-0.003,VALID,20.206,VALID,7.0,VALID,0.0,
2019-10-24, 01:56:06,VALID,916.371,VALID,0.0,VALID,99.172,VALID,-0.015,VALID,20.205,VALID,13.0,VALID,0.0,
2019-10-24, 01:57:06,VALID,916.373,VALID,0.0,VALID,99.173,VALID,-0.019,VALID,20.209,VALID,297.0,VALID,0.0,
2019-10-24, 01:58:06,VALID,916.379,VALID,0.0,VALID,99.133,VALID,0.007,VALID,20.212,VALID,327.0,VALID,0.0,
2019-10-24, 01:59:06,VALID,916.372,VALID,0.0,VALID,99.211,VALID,-0.003,VALID,20.257,VALID,21.0,VALID,0.0,
2019-10-24, 02:00:06,VALID,916.369,VALID,0.0,VALID,99.126,VALID,-0.009,VALID,20.22,VALID,31.0,VALID,0.0,
2019-10-24, 02:01:06,VALID,916.372,VALID,0.0,VALID,99.121,VALID,-0.003,VALID,20.234,VALID,358.0,VALID,0.0,
2019-10-24, 02:02:06,VALID,916.35,VALID,0.0,VALID,99.15,VALID,0.016,VALID,20.266,VALID,14.0,VALID,0.0,
2019-10-24, 02:03:06,VALID,916.351,VALID,0.0,VALID,99.042,VALID,0.012,VALID,20.24,VALID,29.0,VALID,0.0,
2019-10-24, 02:04:06,VALID,916.331,VALID,0.0,VALID,99.082,VALID,0.003,VALID,20.266,VALID,35.0,VALID,0.0,
2019-10-24, 02:05:06,VALID,916.332,VALID,0.0,VALID,99.106,VALID,0.005,VALID,20.304,VALID,38.0,VALID,0.0,
2019-10-24, 02:06:06,VALID,916.303,VALID,0.0,VALID,99.094,VALID,-0.005,VALID,20.323,VALID,15.0,VALID,0.0,
2019-10-24, 02:07:06,VALID,916.287,VALID,0.0,VALID,98.987,VALID,0.001,VALID,20.28,VALID,11.0,VALID,0.0,
2019-10-24, 02:08:06,VALID,916.288,VALID,0.0,VALID,98.94,VALID,0.002,VALID,20.276,VALID,21.0,VALID,0.0,
2019-10-24, 02:09:06,VALID,916.279,VALID,0.0,VALID,98.956,VALID,0.009,VALID,20.278,VALID,7.0,VALID,0.0,
2019-10-24, 02:10:06,VALID,916.295,VALID,0.0,VALID,98.975,VALID,-0.005,VALID,20.298,VALID,33.0,VALID,0.0,
2019-10-24, 02:11:06,VALID,916.273,VALID,0.0,VALID,98.869,VALID,-0.005,VALID,20.283,VALID,9.0,VALID,0.0,
2019-10-24, 02:12:06,VALID,916.291,VALID,0.0,VALID,98.756,VALID,0.007,VALID,20.269,VALID,339.0,VALID,0.0,
2019-10-24, 02:13:06,VALID,916.28,VALID,0.0,VALID,98.631,VALID,-0.004,VALID,20.237,VALID,353.0,VALID,0.0,
2019-10-24, 02:14:06,VALID,916.273,VALID,0.0,VALID,98.581,VALID,0.007,VALID,20.233,VALID,19.0,VALID,0.0,
2019-10-24, 02:15:06,VALID,916.269,VALID,0.0,VALID,98.627,VALID,0.005,VALID,20.236,VALID,12.0,VALID,0.0,
2019-10-24, 02:16:06,VALID,916.294,VALID,0.0,VALID,98.752,VALID,-0.011,VALID,20.27,VALID,357.0,VALID,0.0,
2019-10-24, 02:17:06,VALID,916.293,VALID,0.0,VALID,98.674,VALID,0.018,VALID,20.222,VALID,5.0,VALID,0.0,
2019-10-24, 02:18:06,VALID,916.291,VALID,0.0,VALID,98.635,VALID,0.014,VALID,20.178,VALID,18.0,VALID,0.0,
2019-10-24, 02:19:06,VALID,916.264,VALID,0.0,VALID,98.757,VALID,0.001,VALID,20.18,VALID,1.0,VALID,0.0,
2019-10-24, 02:20:06,VALID,916.242,VALID,0.0,VALID,98.844,VALID,0.016,VALID,20.188,VALID,347.0,VALID,0.0,
2019-10-24, 02:21:06,VALID,916.213,VALID,0.0,VALID,98.804,VALID,-0.001,VALID,20.157,VALID,337.0,VALID,0.0,
2019-10-24, 02:22:06,VALID,916.205,VALID,0.0,VALID,98.833,VALID,-0.003,VALID,20.159,VALID,347.0,VALID,0.0,
2019-10-24, 02:23:06,VALID,916.215,VALID,0.0,VALID,98.806,VALID,-0.008,VALID,20.141,VALID,356.0,VALID,0.0,
2019-10-24, 02:24:06,VALID,916.205,VALID,0.0,VALID,98.895,VALID,0.005,VALID,20.169,VALID,20.0,VALID,0.0,
2019-10-24, 02:25:06,VALID,916.193,VALID,0.0,VALID,98.994,VALID,0.009,VALID,20.178,VALID,16.0,VALID,0.0,
2019-10-24, 02:26:06,VALID,916.188,VALID,0.0,VALID,99.052,VALID,-0.004,VALID,20.194,VALID,326.0,VALID,0.0,
2019-10-24, 02:27:06,VALID,916.178,VALID,0.0,VALID,98.979,VALID,0.012,VALID,20.184,VALID,255.0,VALID,0.0,
2019-10-24, 02:28:06,VALID,916.166,VALID,0.0,VALID,98.929,VALID,0.006,VALID,20.178,VALID,255.0,VALID,0.0,
2019-10-24, 02:29:06,VALID,916.137,VALID,0.0,VALID,98.949,VALID,-0.001,VALID,20.208,VALID,255.0,VALID,0.0,
2019-10-24, 02:30:06,VALID,916.138,VALID,0.0,VALID,98.928,VALID,0.01,VALID,20.23,VALID,2.0,VALID,0.0,
2019-10-24, 02:31:06,VALID,916.117,VALID,0.0,VALID,98.878,VALID,-0.002,VALID,20.226,VALID,16.0,VALID,0.0,
2019-10-24, 02:32:06,VALID,916.12,VALID,0.0,VALID,98.88,VALID,0.006,VALID,20.247,VALID,34.0,VALID,0.0,
2019-10-24, 02:33:06,VALID,916.097,VALID,0.0,VALID,98.847,VALID,0.001,VALID,20.243,VALID,11.0,VALID,0.0,
2019-10-24, 02:34:06,VALID,916.109,VALID,0.0,VALID,98.845,VALID,0.002,VALID,20.234,VALID,22.0,VALID,0.0,
2019-10-24, 02:35:06,VALID,916.124,VALID,0.0,VALID,98.741,VALID,0.01,VALID,20.19,VALID,31.0,VALID,0.0,
2019-10-24, 02:36:06,VALID,916.102,VALID,0.0,VALID,98.806,VALID,0.009,VALID,20.214,VALID,33.0,VALID,0.0,
2019-10-24, 02:37:06,VALID,916.11,VALID,0.0,VALID,98.881,VALID,-0.019,VALID,20.23,VALID,46.0,VALID,0.0,
2019-10-24, 02:38:06,VALID,916.081,VALID,0.0,VALID,98.853,VALID,-0.011,VALID,20.237,VALID,45.0,VALID,0.0,
2019-10-24, 02:39:06,VALID,916.073,VALID,0.0,VALID,98.835,VALID,-0.01,VALID,20.239,VALID,45.0,VALID,0.0,
2019-10-24, 02:40:06,VALID,916.075,VALID,0.0,VALID,98.725,VALID,-0.007,VALID,20.23,VALID,40.0,VALID,0.0,
2019-10-24, 02:41:06,VALID,916.072,VALID,0.0,VALID,98.649,VALID,-0.019,VALID,20.238,VALID,39.0,VALID,0.0,
2019-10-24, 02:42:06,VALID,916.064,VALID,0.0,VALID,98.625,VALID,-0.005,VALID,20.267,VALID,9.0,VALID,0.0,
2019-10-24, 02:43:06,VALID,916.029,VALID,0.0,VALID,98.508,VALID,-0.036,VALID,20.253,VALID,25.0,VALID,0.0,
2019-10-24, 02:44:06,VALID,916.013,VALID,0.0,VALID,98.388,VALID,-0.01,VALID,20.254,VALID,13.0,VALID,0.0,
2019-10-24, 02:45:06,VALID,915.998,VALID,0.0,VALID,98.273,VALID,-0.018,VALID,20.215,VALID,9.0,VALID,0.0,
2019-10-24, 02:46:06,VALID,916.013,VALID,0.0,VALID,98.331,VALID,-0.012,VALID,20.224,VALID,26.0,VALID,0.0,
2019-10-24, 02:47:06,VALID,915.987,VALID,0.0,VALID,98.372,VALID,-0.009,VALID,20.21,VALID,13.0,VALID,0.0,
2019-10-24, 02:48:06,VALID,915.96,VALID,0.0,VALID,98.458,VALID,0.0,VALID,20.216,VALID,1.0,VALID,0.0,
2019-10-24, 02:49:06,VALID,915.933,VALID,0.0,VALID,98.621,VALID,0.009,VALID,20.255,VALID,22.0,VALID,0.0,
2019-10-24, 02:50:06,VALID,915.937,VALID,0.0,VALID,98.619,VALID,-0.007,VALID,20.261,VALID,33.0,VALID,0.0,
2019-10-24, 02:51:06,VALID,915.942,VALID,0.0,VALID,98.563,VALID,-0.011,VALID,20.254,VALID,40.0,VALID,0.0,
2019-10-24, 02:52:06,VALID,915.93,VALID,0.0,VALID,98.451,VALID,0.015,VALID,20.232,VALID,26.0,VALID,0.0,
2019-10-24, 02:53:06,VALID,915.952,VALID,0.0,VALID,98.398,VALID,-0.01,VALID,20.219,VALID,18.0,VALID,0.0,
2019-10-24, 02:54:06,VALID,915.937,VALID,0.0,VALID,98.42,VALID,-0.01,VALID,20.23,VALID,7.0,VALID,0.0,
2019-10-24, 02:55:06,VALID,915.959,VALID,0.0,VALID,98.306,VALID,0.002,VALID,20.21,VALID,341.0,VALID,0.0,
2019-10-24, 02:56:06,VALID,915.955,VALID,0.0,VALID,98.382,VALID,0.005,VALID,20.211,VALID,352.0,VALID,0.0,
2019-10-24, 02:57:06,VALID,915.952,VALID,0.0,VALID,98.383,VALID,0.009,VALID,20.219,VALID,3.0,VALID,0.0,
2019-10-24, 02:58:06,VALID,915.951,VALID,0.0,VALID,98.419,VALID,-0.007,VALID,20.252,VALID,11.0,VALID,0.0,
2019-10-24, 02:59:06,VALID,915.911,VALID,0.0,VALID,98.317,VALID,0.005,VALID,20.244,VALID,23.0,VALID,0.0,
2019-10-24, 03:00:06,VALID,915.91,VALID,0.0,VALID,98.281,VALID,0.008,VALID,20.255,VALID,22.0,VALID,0.0,
2019-10-24, 03:01:06,VALID,915.875,VALID,0.0,VALID,98.319,VALID,-0.004,VALID,20.267,VALID,22.0,VALID,0.0,
2019-10-24, 03:02:06,VALID,915.875,VALID,0.0,VALID,98.297,VALID,-0.0,VALID,20.268,VALID,22.0,VALID,0.0,
2019-10-24, 03:03:06,VALID,915.865,VALID,0.0,VALID,98.193,VALID,0.006,VALID,20.24,VALID,37.0,VALID,0.0,
2019-10-24, 03:04:06,VALID,915.844,VALID,0.0,VALID,98.204,VALID,0.007,VALID,20.235,VALID,65.0,VALID,0.0,
2019-10-24, 03:05:06,VALID,915.842,VALID,0.0,VALID,98.206,VALID,0.006,VALID,20.241,VALID,74.0,VALID,0.0,
2019-10-24, 03:06:06,VALID,915.803,VALID,0.0,VALID,98.188,VALID,0.002,VALID,20.238,INVALID,360.0,VALID,0.0,
2019-10-24, 03:07:06,VALID,915.781,VALID,0.0,VALID,98.237,VALID,-0.005,VALID,20.256,INVALID,360.0,VALID,0.0,
2019-10-24, 03:08:06,VALID,915.762,VALID,0.0,VALID,98.151,VALID,-0.002,VALID,20.242,INVALID,360.0,VALID,0.0,
2019-10-24, 03:09:06,VALID,915.747,VALID,0.0,VALID,98.221,VALID,-0.015,VALID,20.253,INVALID,360.0,VALID,0.0,
2019-10-24, 03:10:06,VALID,915.723,VALID,0.0,VALID,98.28,VALID,-0.021,VALID,20.257,INVALID,360.0,VALID,0.0,
2019-10-24, 03:11:06,VALID,915.722,VALID,0.0,VALID,98.421,VALID,-0.003,VALID,20.28,INVALID,360.0,VALID,0.0,
2019-10-24, 03:12:06,VALID,915.717,VALID,0.0,VALID,98.41,VALID,0.012,VALID,20.293,INVALID,360.0,VALID,0.0,
2019-10-24, 03:13:06,VALID,915.705,VALID,0.0,VALID,98.254,VALID,-0.008,VALID,20.267,INVALID,360.0,VALID,0.0,
2019-10-24, 03:14:06,VALID,915.684,VALID,0.0,VALID,98.15,VALID,0.005,VALID,20.243,INVALID,360.0,VALID,0.0,
2019-10-24, 03:15:06,VALID,915.658,VALID,0.0,VALID,98.197,VALID,0.012,VALID,20.24,INVALID,360.0,VALID,0.0,
2019-10-24, 03:16:06,VALID,915.655,VALID,0.0,VALID,98.241,VALID,0.005,VALID,20.254,INVALID,360.0,VALID,0.0,
2019-10-24, 03:17:06,VALID,915.673,VALID,0.0,VALID,98.278,VALID,0.003,VALID,20.233,VALID,14.0,VALID,0.0,
2019-10-24, 03:18:06,VALID,915.661,VALID,0.0,VALID,98.294,VALID,-0.006,VALID,20.2,VALID,12.0,VALID,0.0,
2019-10-24, 03:19:06,VALID,915.66,VALID,0.0,VALID,98.344,VALID,-0.001,VALID,20.162,VALID,24.0,VALID,0.0,
2019-10-24, 03:20:06,VALID,915.639,VALID,0.0,VALID,98.416,VALID,0.007,VALID,20.15,VALID,28.0,VALID,0.0,
2019-10-24, 03:21:06,VALID,915.646,VALID,0.0,VALID,98.53,VALID,-0.005,VALID,20.183,VALID,26.0,VALID,0.0,
2019-10-24, 03:22:06,VALID,915.632,VALID,0.0,VALID,98.575,VALID,-0.01,VALID,20.203,VALID,25.0,VALID,0.0,
2019-10-24, 03:23:06,VALID,915.611,VALID,0.0,VALID,98.496,VALID,-0.016,VALID,20.187,VALID,26.0,VALID,0.0,
2019-10-24, 03:24:06,VALID,915.586,VALID,0.0,VALID,98.446,VALID,-0.021,VALID,20.168,VALID,26.0,VALID,0.0,
2019-10-24, 03:25:06,VALID,915.55,VALID,0.0,VALID,98.463,VALID,-0.01,VALID,20.175,VALID,26.0,VALID,0.0,
2019-10-24, 03:26:06,VALID,915.512,VALID,0.0,VALID,98.481,VALID,-0.005,VALID,20.187,VALID,26.0,VALID,0.0,
2019-10-24, 03:27:06,VALID,915.493,VALID,0.0,VALID,98.458,VALID,0.003,VALID,20.199,VALID,26.0,VALID,0.0,
2019-10-24, 03:28:06,VALID,915.476,VALID,0.0,VALID,98.382,VALID,-0.007,VALID,20.197,VALID,28.0,VALID,0.0,
2019-10-24, 03:29:06,VALID,915.472,VALID,0.0,VALID,98.195,VALID,-0.006,VALID,20.168,VALID,28.0,VALID,0.0,
2019-10-24, 03:30:06,VALID,915.455,VALID,0.0,VALID,98.187,VALID,0.001,VALID,20.173,VALID,117.0,VALID,0.0,
2019-10-24, 03:31:06,VALID,915.456,VALID,0.0,VALID,98.203,VALID,-0.005,VALID,20.157,VALID,150.0,VALID,0.0,
2019-10-24, 03:32:06,VALID,915.447,VALID,0.0,VALID,98.311,VALID,-0.004,VALID,20.15,VALID,153.0,VALID,0.0,
2019-10-24, 03:33:06,VALID,915.438,VALID,0.0,VALID,98.338,VALID,-0.016,VALID,20.129,VALID,153.0,VALID,0.0,
2019-10-24, 03:34:06,VALID,915.44,VALID,0.0,VALID,98.494,VALID,-0.001,VALID,20.135,VALID,153.0,VALID,0.0,
2019-10-24, 03:35:06,VALID,915.432,VALID,0.0,VALID,98.543,VALID,0.006,VALID,20.133,VALID,153.0,VALID,0.0,
2019-10-24, 03:36:06,VALID,915.423,VALID,0.0,VALID,98.572,VALID,-0.002,VALID,20.137,VALID,114.0,VALID,0.0,
2019-10-24, 03:37:06,VALID,915.433,VALID,0.0,VALID,98.593,VALID,-0.022,VALID,20.161,VALID,28.0,VALID,0.0,
2019-10-24, 03:38:06,VALID,915.418,VALID,0.0,VALID,98.49,VALID,-0.009,VALID,20.153,VALID,9.0,VALID,0.0,
2019-10-24, 03:39:06,VALID,915.448,VALID,0.0,VALID,98.331,VALID,-0.026,VALID,20.123,VALID,9.0,VALID,0.0,
2019-10-24, 03:40:06,VALID,915.454,VALID,0.0,VALID,98.271,VALID,-0.009,VALID,20.116,VALID,9.0,VALID,0.0,
2019-10-24, 03:41:06,VALID,915.468,VALID,0.0,VALID,98.304,VALID,-0.014,VALID,20.122,VALID,20.0,VALID,0.0,
2019-10-24, 03:42:06,VALID,915.478,VALID,0.0,VALID,98.312,VALID,-0.006,VALID,20.108,VALID,23.0,VALID,0.0,
2019-10-24, 03:43:06,VALID,915.502,VALID,0.0,VALID,98.293,VALID,-0.012,VALID,20.075,VALID,23.0,VALID,0.0,